TimeCST,TemperatureF,Dew PointF,Humidity,Sea Level PressureIn,VisibilityMPH,Wind Direction,Wind SpeedMPH,Gust SpeedMPH,PrecipitationIn,Events,Conditions,WindDirDegrees,DateUTC
12:53 AM,28.9,12.9,51,30.31,10.0,SSE,8.1,-,N/A,,Overcast,160,2013-11-25 06:53:00
1:53 AM,30.0,12.9,49,30.31,10.0,South,6.9,-,N/A,,Overcast,190,2013-11-25 07:53:00
2:53 AM,30.0,12.9,49,30.30,10.0,Calm,Calm,-,N/A,,Overcast,0,2013-11-25 08:53:00
3:53 AM,30.9,12.9,47,30.28,10.0,South,5.8,-,N/A,,Overcast,190,2013-11-25 09:53:00
4:53 AM,30.9,14.0,50,30.26,10.0,South,6.9,-,N/A,,Overcast,180,2013-11-25 10:53:00
5:53 AM,30.9,14.0,50,30.26,10.0,SSW,5.8,-,N/A,,Overcast,200,2013-11-25 11:53:00
6:53 AM,30.9,15.1,52,30.26,10.0,SSW,4.6,-,N/A,,Overcast,200,2013-11-25 12:53:00
7:53 AM,32.0,15.1,50,30.26,10.0,SSW,6.9,-,N/A,,Overcast,200,2013-11-25 13:53:00
8:53 AM,32.0,16.0,52,30.28,10.0,South,4.6,-,N/A,,Overcast,190,2013-11-25 14:53:00
9:53 AM,33.1,16.0,50,30.27,10.0,SW,6.9,-,N/A,,Overcast,220,2013-11-25 15:53:00
10:53 AM,35.1,16.0,46,30.26,10.0,SW,6.9,-,N/A,,Overcast,220,2013-11-25 16:53:00
11:53 AM,37.0,18.0,46,30.24,10.0,SSW,6.9,-,N/A,,Overcast,210,2013-11-25 17:53:00
12:53 PM,39.9,19.0,43,30.22,10.0,SW,5.8,-,N/A,,Scattered Clouds,220,2013-11-25 18:53:00
1:53 PM,43.0,23.0,45,30.20,10.0,West,10.4,-,N/A,,Mostly Cloudy,280,2013-11-25 19:53:00
2:53 PM,42.1,23.0,47,30.19,10.0,West,9.2,-,N/A,,Mostly Cloudy,260,2013-11-25 20:53:00
3:53 PM,42.1,24.1,49,30.20,10.0,West,6.9,-,N/A,,Clear,280,2013-11-25 21:53:00
4:53 PM,39.0,24.1,55,30.20,10.0,West,5.8,-,N/A,,Clear,280,2013-11-25 22:53:00
5:53 PM,36.0,24.1,62,30.22,10.0,West,3.5,-,N/A,,Clear,270,2013-11-25 23:53:00
6:53 PM,34.0,24.1,67,30.22,10.0,Calm,Calm,-,N/A,,Clear,0,2013-11-26 00:53:00
7:53 PM,30.9,25.0,79,30.24,10.0,Calm,Calm,-,N/A,,Overcast,0,2013-11-26 01:53:00
8:53 PM,30.0,24.1,79,30.23,10.0,West,3.5,-,N/A,,Partly Cloudy,280,2013-11-26 02:53:00
9:53 PM,30.0,24.1,79,30.23,9.0,West,4.6,-,N/A,,Clear,280,2013-11-26 03:53:00
10:53 PM,30.0,24.1,79,30.24,10.0,WNW,5.8,-,N/A,,Clear,290,2013-11-26 04:53:00
11:53 PM,30.9,24.1,76,30.24,9.0,West,8.1,-,N/A,,Clear,280,2013-11-26 05:53:00